Note: Alberta surface water quality data is accessible by the public through: http://aep.alberta.ca/water/reports-data/surface-water-quality-data/default.aspx.,,,,,,,,,,,,,,,,,,,
Remarque : Les donn�es sur la qualit� de l�eau de surface sont accessibles au public � l�adresse : http://aep.alberta.ca/water/reports-data/surface-water-quality-data/default.aspx.,,,,,,,,,,,,,,,,,,,
STATION_STATION,DATE_DATE,INDEX_PERIOD_P�RIODE_DE_L'INDICE,TEMPERATURE_TEMP�RATURE,PH_PH,HARDNESS_DURET�,OXYGEN_DISSOLVED_OXYG�NE DISSOUS,AMMONIA_UNFILTERED_AZOTE_AMMONIACAL_NON_FILTR�,NITROGEN_TOTAL_AZOTE_TOTAL,PHOSPHORUS_TOTAL_PHOSPHORE_TOTAL,ALUMINUM_DISSOLVED_ALUMINIUM_DISSOUS,ARSENIC_TOTAL_ARSENIC_TOTAL,CADMIUM_TOTAL_CADMIUM_TOTAL,COPPER_TOTAL_CUIVRE_TOTAL,MERCURY_TOTAL_MERCURE_TOTAL,LEAD_TOTAL_PLOMB_TOTAL,SELENIUM_TOTAL_S�L�NIUM_TOTAL,ZINC_TOTAL_ZINC_TOTAL,2_4_D_2_4_D,MCPA_MCPA
AB05AB0070,12/01/2015 13:00,2015-2017,1.267,8.11,180,13.56,<0.05,0.35,0.005,0.00165,0.316,0.038,0.73,0.00073,0.059,0.77,<0.1,,
AB05AB0070,02/02/2015 13:15,2015-2017,1.541,8.66,170,13.94,<0.05,0.21,<0.003,0.00135,0.309,0.008,0.72,0.00056,0.03,0.7,0.4,,
AB05AB0070,16/03/2015 10:30,2015-2017,2.26,8.44,170,13.04,<0.05,0.18,0.007,<0.00013,0.377,0.01,1.04,0.00085,0.154,0.56,1.4,,
AB05AB0070,28/04/2015 7:15,2015-2017,5.54,8.28,160,11.17,<0.05,0.15,0.0067,0.00246,0.275,0.006,1.91,0.00072,0.112,0.52,0.8,,
AB05AB0070,19/05/2015 13:15,2015-2017,8.1,8.32,170,10.97,<0.05,0.82,0.004,0.00258,0.288,0.006,0.86,0.00076,0.059,0.48,0.7,<0.005,<5
AB05AB0070,08/06/2015 14:10,2015-2017,9.02,8.17,180,10.38,<0.05,0.2,<0.003,0.00212,0.286,0.005,0.78,0.00066,0.041,0.54,0.4,<0.005,<5
AB05AB0070,14/07/2015 7:45,2015-2017,10.23,8.29,140,9.21,<0.05,0.81,0.0033,0.00581,0.289,0.011,0.9,0.00095,0.057,0.29,0.5,<0.005,<5
AB05AB0070,11/08/2015 7:30,2015-2017,12.63,7.98,140,8.29,<0.05,0.15,0.0036,0.00182,0.272,0.007,0.72,0.00076,0.036,0.42,0.3,<0.005,<5
AB05AB0070,14/09/2015 13:30,2015-2017,13.64,8.43,170,9.07,<0.05,0.19,0.006,0.00344,0.461,0.009,1.06,0.00058,0.107,0.51,1.4,,
AB05AB0070,13/10/2015 12:30,2015-2017,13.16,8.47,160,11.07,<0.05,0.13,0.0037,0.00285,0.426,0.01,0.9,0.00054,0.101,0.5,0.7,,
AB05AB0070,17/11/2015 10:55,2015-2017,6.02,8.44,160,11.04,<0.05,0.19,0.0051,0.0023,0.421,0.009,0.84,0.00048,0.103,0.54,0.6,,
AB05AB0070,07/12/2015 14:40,2015-2017,3.12,8.45,160,12.78,<0.05,0.23,0.0046,0.00422,0.406,0.013,0.79,0.00038,0.04,0.34,0.6,,
AB05AB0070,12/01/2016 8:55,2015-2017,0.74,8.14,200,11.72,<0.05,0.37,0.0068,0.00131,0.348,0.009,0.86,0.00038,0.053,0.51,0.8,,
AB05AB0070,08/02/2016 15:00,2015-2017,3.21,8.43,170,13.34,<0.05,1.3,0.0041,0.00136,0.307,0.007,0.9,0.0003,0.027,0.62,0.5,,
AB05AB0070,08/03/2016 14:18,2015-2017,3.34,8.27,170,12.6,<0.05,0.17,0.0071,<0.00013,0.328,<0.002,0.71,0.00055,0.062,0.52,0.6,,
AB05AB0070,05/04/2016 11:20,2015-2017,4.73,8.24,160,12.12,<0.05,0.38,0.0058,0.00257,0.299,<0.002,0.69,0.00047,0.012,0.56,0.3,,
AB05AB0070,10/05/2016 10:20,2015-2017,5.93,8.24,170,11.25,<0.05,0.17,<0.003,0.00236,0.284,0.004,0.71,0.00032,0.057,0.35,0.4,0.014,13
AB05AB0070,22/06/2016 10:26,2015-2017,12.21,8.27,140,10.08,<0.05,0.25,0.0053,<0.00013,0.273,0.002,0.94,0.00056,0.07,0.5,0.7,<0.005,<5
AB05AB0070,18/07/2016 11:30,2015-2017,14.34,8.42,140,10.03,<0.05,0.12,<0.003,0.00199,0.257,0.004,0.72,0.00083,0.026,0.37,0.4,<0.005,<5
AB05AB0070,23/08/2016 10:00,2015-2017,13.77,8.12,140,8.86,<0.05,0.16,0.0051,0.00634,0.298,0.008,0.85,0.00081,0.1,0.48,0.9,<0.005,<5
AB05AB0070,12/09/2016 11:25,2015-2017,15.03,8.39,150,9.48,<0.05,0.12,<0.003,0.00282,0.305,0.01,1.1,0.00062,0.133,0.38,2.1,,
AB05AB0070,03/10/2016 11:30,2015-2017,13.45,8.18,150,10.26,<0.05,<0.055,0.0052,0.00229,0.424,0.012,0.79,0.00068,0.092,0.38,0.7,,
AB05AB0070,07/11/2016 11:30,2015-2017,8.43,8.36,140,11.21,<0.05,0.14,0.0046,0.00202,0.396,0.005,0.6,0.00046,0.034,0.66,0.1,,
AB05AB0070,06/12/2016 11:15,2015-2017,2.35,8.37,160,12.29,<0.05,0.13,0.0045,0.00332,0.373,0.009,0.94,0.00049,0.108,0.52,2.1,,
AB05AB0070,16/01/2017 11:30,2015-2017,1.11,8.62,170,13.71,<0.05,0.21,0.0048,0.00333,0.348,0.007,1.03,0.00052,0.057,0.68,1.3,,
AB05AB0070,14/02/2017 11:25,2015-2017,2.71,8.21,160,12.99,<0.05,0.11,<0.003,0.00286,0.327,0.004,0.68,0.00047,0.04,0.79,0.8,,
AB05AB0070,14/03/2017 10:00,2015-2017,3,8.14,170,11.7,<0.05,0.5,0.0065,0.00339,0.35,0.008,0.86,0.00069,0.068,0.59,0.9,,
AB05AB0070,11/04/2017 10:15,2015-2017,4.53,8.67,150,12.9,<0.05,0.25,0.021,0.00508,0.374,0.01,0.98,0.00069,0.119,0.62,1.2,,
AB05AB0070,24/05/2017 10:45,2015-2017,8.96,8.41,120,11.42,0.018,0.26,0.0068,0.00435,0.434,0.016,1.15,0.00186,0.288,0.42,2,0.009,<0.005
AB05AB0070,20/06/2017 11:20,2015-2017,12.01,8.42,110,10.93,<0.015,0.18,<0.003,0.0079,0.2,<0.01,0.73,0.00156,0.087,0.4,0.3,<0.005,<0.005
AB05AB0070,11/07/2017 10:25,2015-2017,12.69,8.25,120,10.14,<0.015,0.22,0.0033,0.0033,0.24,<0.01,0.68,0.00104,0.018,0.6,0.4,<0.005,<0.005
AB05AB0070,14/08/2017 10:50,2015-2017,15.01,8.03,130,8.83,<0.015,0.17,0.0068,0.0021,0.34,<0.01,0.53,0.00092,0.054,0.6,0.7,<0.005,<0.005
AB05AB0070,12/09/2017 11:20,2015-2017,17.6,8.36,120,8.96,0.018,0.14,0.02,0.0015,0.54,0.02,1.46,0.00191,0.353,0.6,2.7,,
AB05AB0070,17/10/2017 10:45,2015-2017,9.81,8.32,140,10.6,<0.015,0.22,0.0092,0.0013,0.57,<0.01,0.88,0.00136,0.196,0.6,1.2,,
AB05AB0070,14/11/2017 12:15,2015-2017,4.09,8.36,150,12.24,<0.015,0.22,0.0049,0.001,0.49,<0.01,0.77,0.00054,0.057,0.5,0.8,,
AB05AB0070,05/12/2017 11:40,2015-2017,0.7,8.5,150,13.49,<0.015,0.31,0.0055,0.0008,0.52,<0.01,0.88,0.00083,0.104,0.6,0.5,,
AB05AD0010,13/01/2015 11:39,2015-2017,-0.074,7.96,200,12.62,<0.05,0.37,0.007,0.0306,0.474,0.01,0.97,0.00099,0.098,0.82,0.5,,
AB05AD0010,05/02/2015 11:25,2015-2017,-0.009,8.42,200,13.21,<0.05,0.42,0.007,0.0303,0.527,0.007,1.1,0.00083,0.144,0.92,1.4,,
AB05AD0010,16/03/2015 13:20,2015-2017,5.077,8.45,180,11.9,<0.05,0.44,0.035,0.0268,1.12,0.033,3.12,0.00303,1.34,0.4,12,,
AB05AD0010,28/04/2015 11:15,2015-2017,12.14,8.4,190,10.3,<0.05,0.23,0.009,0.0533,0.58,0.01,1.22,0.00123,0.19,0.64,1.5,,
AB05AD0010,20/05/2015 8:20,2015-2017,12.48,8.37,210,9.57,<0.05,0.87,0.043,0.0278,1.07,0.045,2.7,0.00384,0.854,0.69,7.3,0.016,<5
AB05AD0010,09/06/2015 8:35,2015-2017,17.82,8.33,170,8.49,<0.05,0.44,0.05,0.0389,1.19,0.055,2.89,0.00424,1.31,0.51,9.1,0.092,7
AB05AD0010,14/07/2015 8:50,2015-2017,22.5,8.38,160,8.11,<0.05,0.24,0.0084,0.147,0.909,0.009,1.26,0.00113,0.197,0.49,1.3,0.006,<5
AB05AD0010,11/08/2015 7:30,2015-2017,21.1,8.38,170,7.66,<0.05,0.21,0.0092,0.0468,0.867,0.016,1.29,0.00126,0.278,0.53,1.8,<0.005,<5
AB05AD0010,15/09/2015 8:45,2015-2017,12.63,8.26,160,9.33,<0.05,0.24,0.0074,0.0503,0.746,0.008,1.44,0.00131,0.169,0.95,1.5,,
AB05AD0010,15/10/2015 7:57,2015-2017,7.65,8.37,170,10.54,<0.05,0.25,0.0081,0.0316,0.577,0.01,0.98,0.00094,0.22,0.61,1.2,,
AB05AD0010,16/11/2015 14:17,2015-2017,2.84,8.35,170,12.61,<0.05,0.51,<0.003,0.0225,0.458,0.006,0.77,0.00055,0.11,0.67,0.9,,
AB05AD0010,07/12/2015 14:30,2015-2017,0.05,8.2,170,13.12,0.052,0.47,0.0052,0.0338,0.462,0.014,0.7,0.00068,0.117,0.68,1.6,,
AB05AD0010,12/01/2016 9:45,2015-2017,0.03,7.91,210,12.3,<0.05,0.52,0.0057,0.0217,0.395,0.006,0.8,0.00067,0.12,0.58,0.9,,
AB05AD0010,08/02/2016 14:00,2015-2017,0.1,8.34,190,13.57,0.051,0.59,0.012,0.219,0.571,0.012,1.52,0.00075,0.231,1.06,1.9,,
AB05AD0010,07/03/2016 13:20,2015-2017,6.99,8.37,200,11.74,<0.05,0.27,0.0062,0.0243,0.498,0.01,2.2,0.00085,0.189,1.1,2,,
AB05AD0010,06/04/2016 7:10,2015-2017,7.28,8.12,160,10.7,<0.05,0.3,0.0098,0.0179,0.611,0.01,1.84,0.00113,0.344,0.93,2.2,,
AB05AD0010,11/05/2016 8:00,2015-2017,9.07,8.33,170,10.27,<0.05,0.66,0.012,0.013,0.589,0.023,1.3,0.00193,0.468,0.32,2.2,0.015,<5
AB05AD0010,23/06/2016 7:27,2015-2017,19.62,8.24,140,9.28,<0.05,0.15,0.0081,0.0793,0.606,0.007,1.35,0.00366,0.201,0.37,1.3,0.02,7
AB05AD0010,19/07/2016 7:30,2015-2017,20.98,8.39,150,7.78,<0.05,0.22,0.028,0.0328,0.958,0.026,1.82,0.00296,0.812,0.6,4.7,0.014,<5
AB05AD0010,23/08/2016 13:15,2015-2017,15.59,8.36,160,9.16,<0.05,0.21,0.0076,0.0779,0.854,0.009,1.49,0.00175,0.385,0.46,2.4,0.013,<5
AB05AD0010,13/09/2016 7:45,2015-2017,9.59,8.33,150,10.52,<0.05,0.17,0.0098,0.0516,0.626,0.035,1.39,0.00105,0.316,0.66,2.5,,
AB05AD0010,04/10/2016 7:30,2015-2017,10.7,8.19,150,9.7,<0.05,0.19,0.021,0.0418,0.629,0.028,1.18,0.00097,0.278,0.61,2.3,,
AB05AD0010,08/11/2016 10:00,2015-2017,6.8,8.09,130,11.16,<0.05,0.2,0.012,0.0148,0.86,0.022,1.66,0.00202,0.834,0.36,4.5,,
AB05AD0010,06/12/2016 9:00,2015-2017,-0.02,8.35,140,13.48,<0.05,0.28,0.022,0.0101,1.05,0.029,2.03,0.00199,0.984,0.33,5.4,,
AB05AD0010,17/01/2017 10:30,2015-2017,0,7.95,180,11.26,0.16,1.3,0.19,0.0322,1.41,0.08,4.61,0.01042,2.36,0.76,17,,
AB05AD0010,14/02/2017 10:15,2015-2017,0.09,8.13,170,11.88,0.053,0.36,0.0083,0.0178,0.489,0.008,1.2,0.00082,0.18,0.87,1.9,,
AB05AD0010,15/03/2017 7:45,2015-2017,0,8.03,170,12.35,0.067,0.75,0.067,0.0788,1.22,0.05,3.64,0.004,1.64,0.81,8.6,,
AB05AD0010,11/04/2017 13:25,2015-2017,7.81,8.52,150,11.28,<0.05,0.37,0.04,0.0337,0.943,0.03,2.29,0.00307,1.04,0.68,5.9,,
AB05AD0010,25/05/2017 7:30,2015-2017,9.97,8.4,120,9.9,0.033,0.64,0.29,0.00542,2.48,0.154,5.65,0.01219,4.76,0.84,18.1,0.011,<0.005
AB05AD0010,21/06/2017 7:35,2015-2017,17.72,8.18,110,8.46,0.015,0.26,0.006,0.0252,1.56,0.03,3.17,0.00394,1.94,0.5,9.8,0.02,0.016
AB05AD0010,12/07/2017 7:35,2015-2017,20.74,8.24,120,8.1,<0.015,0.13,0.0071,0.0361,0.77,<0.01,0.88,0.00103,0.056,0.4,0.7,0.005,<0.005
AB05AD0010,15/08/2017 7:45,2015-2017,17.69,8.34,120,8.43,<0.015,0.18,0.005,0.0367,0.62,<0.01,0.63,0.00097,0.052,0.6,0.6,<0.005,<0.005
AB05AD0010,13/09/2017 7:20,2015-2017,13.66,8.34,150,9.02,<0.015,0.12,0.0072,0.043,0.66,<0.01,0.96,0.00088,0.06,0.6,0.7,,
AB05AD0010,18/10/2017 7:35,2015-2017,6.12,8.26,170,10.88,<0.015,0.22,0.005,0.0393,0.49,<0.01,0.76,0.0009,0.13,0.7,1,,
AB05AD0010,14/11/2017 14:30,2015-2017,0.05,8.03,170,13.34,<0.015,0.39,0.0048,0.0422,0.47,<0.01,0.79,0.00045,0.08,0.8,0.9,,
AB05AD0010,05/12/2017 14:45,2015-2017,0.08,8.44,170,13.73,0.015,0.42,0.0075,0.0378,0.5,<0.01,0.66,0.00088,0.096,0.9,0.4,,
AB05AG0010,13/01/2015 15:05,2015-2017,-0.076,7.97,210,12.36,0.088,0.47,0.006,0.00398,0.508,0.011,0.92,0.00087,0.067,1.01,0.4,,
AB05AG0010,05/02/2015 14:25,2015-2017,-0.02,8.47,220,13.38,<0.05,0.61,0.012,0.00598,0.668,0.011,1.16,0.00071,0.092,1.07,1.2,,
AB05AG0010,17/03/2015 8:35,2015-2017,4.059,8.4,190,11.76,<0.05,0.47,0.027,0.0113,0.911,0.024,2.04,0.00254,0.691,0.69,4.9,,
AB05AG0010,29/04/2015 10:30,2015-2017,13.01,8.29,180,10.31,<0.05,0.26,0.012,0.0117,0.663,0.015,1.45,0.00146,0.27,0.67,1.9,,
AB05AG0010,21/05/2015 10:50,2015-2017,15.13,8.39,200,9.72,<0.05,0.65,0.034,0.016,1,0.03,2.32,0.00299,0.639,0.73,5.1,0.012,<5
AB05AG0010,10/06/2015 8:30,2015-2017,19.36,8.22,170,7.98,<0.05,0.56,0.076,0.0109,1.5,0.068,3.5,0.00703,1.79,0.65,12,0.035,6
AB05AG0010,15/07/2015 10:00,2015-2017,23.12,8.48,160,8.37,<0.05,0.29,0.014,0.0338,0.991,0.011,1.57,0.00141,0.222,0.55,1.7,0.009,7
AB05AG0010,12/08/2015 10:00,2015-2017,22.6,8.38,170,8.09,<0.05,0.24,0.013,0.0157,0.973,0.012,1.27,0.00154,0.245,0.49,1.7,0.005,<5
AB05AG0010,16/09/2015 9:00,2015-2017,11.95,8.28,170,9.46,<0.05,0.23,0.012,0.0198,0.827,0.012,1.4,0.00102,0.228,0.74,2,,
AB05AG0010,15/10/2015 11:32,2015-2017,9.01,8.6,170,11.36,<0.05,0.31,0.032,0.0189,0.624,0.012,1.06,0.00107,0.197,0.6,1.2,,
AB05AG0010,17/11/2015 11:18,2015-2017,1.48,8.43,190,13.04,<0.05,0.57,0.0099,0.0118,0.6,0.012,1.08,0.00082,0.251,0.68,2,,
AB05AG0010,08/12/2015 12:55,2015-2017,0.04,8.29,180,13.07,0.098,0.96,0.0057,0.00671,0.453,0.01,0.83,0.00052,0.128,0.5,1.3,,
AB05AG0010,21/01/2016 11:15,2015-2017,0.01,7.79,230,11.39,0.075,0.79,0.0086,0.0065,0.518,0.011,0.94,0.00039,0.066,1.05,1.4,,
AB05AG0010,09/02/2016 12:25,2015-2017,0.05,8.35,200,13.84,0.051,0.94,0.011,0.0096,0.622,0.014,1.27,0.00076,0.115,1.05,1.8,,
AB05AG0010,08/03/2016 11:25,2015-2017,5.7,8.33,200,11.7,<0.05,1.7,0.0098,0.0108,0.599,<0.002,1.14,0.0008,0.153,1.06,1.9,,
AB05AG0010,06/04/2016 10:30,2015-2017,8.56,8.44,170,11.17,<0.05,0.27,0.019,0.00712,0.931,0.018,2.39,0.0014,0.558,1.11,3.7,,
AB05AG0010,11/05/2016 11:30,2015-2017,12.91,8.36,180,10.43,<0.05,0.4,0.021,0.00932,0.813,0.023,1.5,0.00185,0.512,0.42,3.2,0.087,7
AB05AG0010,23/06/2016 11:05,2015-2017,21.48,8.5,150,9.67,<0.05,0.21,0.019,0.0102,0.889,0.015,1.71,0.00138,0.392,0.5,2.9,0.048,17
AB05AG0010,19/07/2016 11:10,2015-2017,22.98,8.54,160,9.45,<0.05,0.32,0.036,0.0103,1.1,0.022,1.93,0.00225,0.749,0.66,5.8,0.083,<5
AB05AG0010,24/08/2016 9:50,2015-2017,15.02,8.38,150,9.49,<0.05,0.14,0.016,0.0177,1.07,0.03,1.68,0.00165,0.473,0.54,4.5,0.02,12
AB05AG0010,13/09/2016 11:30,2015-2017,12.1,8.41,150,10.82,<0.05,0.25,0.011,0.0184,0.718,0.01,1.51,0.00116,0.318,0.58,2.9,,
AB05AG0010,04/10/2016 11:00,2015-2017,11.8,8.23,160,9.9,<0.05,0.29,0.024,0.0152,0.808,0.013,1.26,0.00095,0.319,0.5,2,,
AB05AG0010,08/11/2016 9:45,2015-2017,6.98,8.17,140,10.85,<0.05,0.37,0.033,0.00851,1.03,0.052,2.51,0.00325,1.4,0.23,7.7,,
AB05AG0010,07/12/2016 10:15,2015-2017,0.02,8.14,160,13.89,0.063,0.39,0.013,0.00483,0.67,0.011,1.33,0.00102,0.381,0.45,2.5,,
AB05AG0010,17/01/2017 10:15,2015-2017,0,8.05,190,10.79,0.14,0.6,0.015,0.00501,0.484,0.006,1.17,0.00082,0.131,0.64,2,,
AB05AG0010,15/02/2017 10:15,2015-2017,0.02,8.16,170,12.94,<0.05,0.7,0.015,0.0122,0.544,0.02,1.32,0.00103,0.206,1.1,3.2,,
AB05AG0010,15/03/2017 12:20,2015-2017,0.02,8.24,190,13.72,0.067,0.67,0.018,0.0156,0.722,0.02,1.74,0.00153,0.427,0.84,3.4,,
AB05AG0010,12/04/2017 10:15,2015-2017,7.18,8.62,160,11.12,0.052,0.33,0.02,0.0171,0.994,0.04,2.73,0.0033,1.35,0.51,7,,
AB05AG0010,25/05/2017 11:15,2015-2017,12.46,8.36,120,9.5,0.042,0.66,0.23,0.00421,2.39,0.124,5.8,0.00965,4.57,0.78,17.5,0.012,<0.005
AB05AG0010,21/06/2017 11:30,2015-2017,19.94,8.28,120,8.26,0.031,0.32,0.036,0.005,1.5,0.04,3.22,0.0043,1.84,0.5,8.7,0.02,0.012
AB05AG0010,12/07/2017 11:20,2015-2017,22.75,8.36,130,8.69,<0.015,0.16,0.0078,0.025,0.83,<0.01,1.14,0.00111,0.11,0.7,1,0.027,<0.005
AB05AG0010,15/08/2017 11:40,2015-2017,19.75,8.43,120,9.38,<0.015,0.2,0.007,0.0137,0.73,<0.01,0.81,0.00085,0.059,0.6,0.7,0.009,<0.005
AB05AG0010,13/09/2017 11:15,2015-2017,15.16,8.47,160,10.04,<0.015,0.17,0.008,0.0138,0.77,0.02,1.06,0.00069,0.058,0.7,1,,
AB05AG0010,18/10/2017 11:35,2015-2017,7.1,8.34,180,11.16,<0.015,0.34,0.007,0.0188,0.56,0.01,0.8,0.00069,0.12,1,1.1,,
AB05AG0010,15/11/2017 11:20,2015-2017,0.02,8.2,190,13.55,<0.015,0.73,0.0064,0.0083,0.54,<0.01,0.77,0.00056,0.096,0.9,1.1,,
AB05AG0010,06/12/2017 11:20,2015-2017,0.02,8.46,180,13.98,<0.015,0.55,0.0091,0.0086,0.58,<0.01,0.8,0.00091,0.105,1,1,,
AB05AK0020,20/01/2015 9:18,2015-2017,0.001,7.91,200,12.74,0.079,1.3,0.015,0.00309,0.537,0.028,1.7,0.00247,0.245,0.81,4,,
AB05AK0020,12/02/2015 9:45,2015-2017,0.014,8.6,220,13.25,<0.05,1.5,0.013,0.0014,0.547,0.036,1.78,0.00211,0.17,0.98,3.7,,
AB05AK0020,12/03/2015 11:40,2015-2017,0.43,8.47,190,13.8,<0.05,0.94,0.029,0.0053,0.768,0.036,2.03,0.00258,0.674,0.84,6.2,,
AB05AK0020,15/04/2015 14:00,2015-2017,11.4,8.42,180,10.57,<0.05,0.78,0.031,0.00355,0.827,0.028,2.15,0.00306,0.762,0.79,5.7,,
AB05AK0020,13/05/2015 10:40,2015-2017,14.77,8.5,200,9.91,<0.05,0.28,0.016,0.0067,0.731,0.02,2.58,0.00195,0.281,0.65,2.8,0.01,5
AB05AK0020,16/06/2015 13:15,2015-2017,20.69,8.39,140,9.79,<0.05,0.5,0.034,0.00435,0.974,0.03,2.15,0.00262,0.738,0.41,6,0.027,6
AB05AK0020,22/07/2015 11:30,2015-2017,21.13,8.49,180,8.4,<0.05,0.38,0.021,0.0129,1.02,0.021,2.33,0.00166,0.358,0.42,2.9,0.013,<5
AB05AK0020,18/08/2015 14:00,2015-2017,20.91,8.39,150,9.32,<0.05,0.3,0.013,0.00784,0.86,0.015,1.36,0.00108,0.244,0.36,1.4,0.055,<5
AB05AK0020,22/09/2015 13:50,2015-2017,15.8,8.46,160,10.19,<0.05,0.6,0.007,,0.642,0.014,1.18,0.00119,0.24,0.42,2.1,,
AB05AK0020,20/10/2015 13:30,2015-2017,10.73,8.34,190,10.94,<0.05,2.1,0.015,0.00585,0.56,0.019,1.54,0.00173,0.305,0.55,2.7,,
AB05AK0020,24/11/2015 10:50,2015-2017,0.07,8.23,210,13.47,<0.05,1.1,0.03,0.00565,0.464,0.011,1.06,0.00068,0.177,0.68,2.4,,
AB05AK0020,15/12/2015 11:50,2015-2017,0.15,8.01,200,13.4,0.096,1.3,0.0082,0.00243,0.417,0.006,0.79,0.00053,0.124,0.55,2.1,,
AB05AK0020,19/01/2016 13:40,2015-2017,0,7.76,220,12.06,0.14,1.4,0.0043,0.00145,0.382,0.027,0.98,0.00034,0.116,0.83,3,,
AB05AK0020,22/02/2016 13:20,2015-2017,0.31,8.43,200,13.99,0.058,1.3,0.033,0.0027,0.891,0.082,2.7,0.00292,1.9,1.06,9.4,,
AB05AK0020,15/03/2016 11:25,2015-2017,5.44,8.32,200,12.19,<0.05,1.1,0.022,0.0146,0.643,0.026,1.83,0.00172,0.364,0.96,4.1,,
AB05AK0020,13/04/2016 9:00,2015-2017,10.6,8.33,180,10.17,<0.05,0.93,0.013,0.00415,0.626,0.021,1.39,0.00118,0.319,0.65,2.6,,
AB05AK0020,18/05/2016 8:45,2015-2017,17.25,8.26,180,9.08,0.052,0.26,0.009,0.00483,0.819,0.014,1.31,0.00109,0.277,0.76,2.1,0.021,<5
AB05AK0020,14/06/2016 13:40,2015-2017,19.56,8.4,150,8.53,0.061,0.49,0.034,0.00599,1.03,0.031,1.91,0.00298,0.853,0.52,5.2,<0.005,<5
AB05AK0020,12/07/2016 14:00,2015-2017,22.02,8.5,160,9.66,<0.05,0.37,0.021,0.015,1.09,0.029,2.39,0.00316,0.811,0.68,4.8,0.027,<5
AB05AK0020,16/08/2016 13:30,2015-2017,25.52,8.52,170,9.48,<0.05,0.33,0.021,0.00987,0.912,0.03,1.77,0.00197,0.426,0.49,3.1,0.111,<5
AB05AK0020,20/09/2016 14:00,2015-2017,16.4,8.37,170,10.44,<0.05,0.58,0.0081,0.0105,0.596,0.014,1.36,0.00108,0.18,0.49,2,,
AB05AK0020,17/10/2016 12:15,2015-2017,7.43,8.12,180,11.07,<0.05,0.75,0.016,0.00766,0.657,0.019,1.44,0.00175,0.425,0.63,4.3,,
AB05AK0020,21/11/2016 12:45,2015-2017,3.38,8.57,190,12.74,<0.05,0.74,0.015,0.00541,0.714,0.01,1.79,0.00186,0.639,0.68,4.4,,
AB05AK0020,12/12/2016 13:15,2015-2017,0.04,8.45,230,13.81,<0.05,1.2,0.0075,0.00432,0.446,0.021,1.14,0.00073,0.158,0.66,2.4,,
AB05AK0020,09/01/2017 14:20,2015-2017,-0.03,8.01,230,11.61,0.16,1.8,0.014,0.00306,0.383,0.046,1.56,0.00063,0.173,0.9,3.5,,
AB05AK0020,07/02/2017 13:30,2015-2017,-0.01,8,230,13.03,<0.05,1.4,0.01,0.00319,0.355,0.022,1.15,0.00065,0.167,0.78,3.9,,
AB05AK0020,20/03/2017 13:50,2015-2017,0.98,7.97,140,11.95,0.26,2.3,0.37,0.0388,3.65,0.286,15.7,0.00922,10.6,1.09,45.8,,
AB05AK0020,03/04/2017 14:15,2015-2017,9.68,8.2,140,10.62,0.059,0.89,0.079,0.0174,0.963,0.046,2.71,0.00453,1.26,0.59,6.5,,
AB05AK0020,17/05/2017 7:00,2015-2017,12.68,8.43,170,9.34,0.019,0.62,0.08,0.00433,1.14,0.052,2.85,0.00498,1.38,0.58,7.5,0.022,<0.005
AB05AK0020,12/06/2017 14:00,2015-2017,18.31,8.12,130,8.38,0.05,0.84,0.18,0.0032,2.4,0.1,5.58,0.00944,3.86,0.8,18.4,0.019,0.015
AB05AK0020,25/07/2017 8:30,2015-2017,20.87,8.34,160,8.06,<0.015,0.32,0.0084,0.0055,0.72,<0.01,1.4,0.00088,0.094,0.5,0.9,0.014,<0.005
AB05AK0020,23/08/2017 9:30,2015-2017,21.6,8.38,160,8.71,0.031,0.29,0.0055,0.006,0.61,0.01,1.36,0.00071,0.084,0.6,0.9,0.008,<0.005
AB05AK0020,19/09/2017 9:00,2015-2017,10.57,8.38,170,10.02,<0.015,0.26,0.0058,0.0023,0.64,<0.01,1.22,0.00055,0.072,0.5,1.2,,
AB05AK0020,17/10/2017 7:00,2015-2017,6.89,8.42,200,10.9,0.03,1.2,0.16,0.0028,2.83,0.14,6.78,0.00987,4.56,1,21.6,,
AB05AK0020,20/11/2017 14:10,2015-2017,0.06,8.57,200,13.16,0.018,1.6,0.0076,0.0013,0.53,0.01,1.04,0.00067,0.11,1.1,1.9,,
AB05AK0020,11/12/2017 14:40,2015-2017,0.06,8.36,220,13.26,0.058,1.5,0.0069,0.0023,0.38,<0.01,1.01,0.00063,0.099,1.2,2.2,,
AB05BH0010,19/01/2015 11:30,2015-2017,0.02,8.18,180,13.38,<0.05,0.24,<0.003,0.00106,0.12,0.005,0.34,0.0002,0.035,0.55,0.5,,
AB05BH0010,09/02/2015 10:30,2015-2017,0.01,8.26,170,13.05,<0.05,0.24,0.003,0.00157,0.115,0.007,0.48,0.00028,0.048,0.66,1.4,,
AB05BH0010,09/03/2015 9:35,2015-2017,0.991,8.42,170,12.87,<0.05,0.15,0.005,0.00111,0.135,0.006,0.37,0.00036,0.043,0.71,0.9,,
AB05BH0010,13/04/2015 9:20,2015-2017,2.56,8.35,180,12.22,<0.05,0.12,0.003,0.00115,0.144,0.006,0.56,0.00028,0.031,0.67,0.8,,
AB05BH0010,11/05/2015 9:30,2015-2017,8.09,8.41,190,10.84,<0.05,0.12,0.004,0.00128,0.158,0.009,0.53,0.00035,0.073,0.54,0.7,<0.005,<5
AB05BH0010,16/06/2015 10:15,2015-2017,12.28,8.21,130,10,<0.05,0.16,0.005,0.00475,0.185,0.01,0.45,0.00058,0.124,0.4,1.2,<0.005,<5
AB05BH0010,21/07/2015 9:45,2015-2017,16.55,8.54,140,9.22,<0.05,0.14,0.004,0.00253,0.095,0.004,0.71,0.00014,0.022,0.28,0.5,<0.005,<5
AB05BH0010,17/08/2015 9:15,2015-2017,15.22,8.21,150,9.37,<0.05,0.092,<0.003,0.0017,0.131,0.006,0.42,0.00028,0.032,0.34,0.7,<0.005,<5
AB05BH0010,21/09/2015 10:20,2015-2017,10.45,8.36,150,10.34,0.18,0.19,0.0034,0.0021,0.132,<0.002,0.28,0.00029,0.015,0.34,0.2,,
AB05BH0010,19/10/2015 10:30,2015-2017,7.98,8.31,160,10.88,<0.05,0.12,<0.003,0.00217,0.072,0.004,0.31,0.00027,0.026,0.29,0.5,,
AB05BH0010,23/11/2015 10:30,2015-2017,0.77,8.21,150,12.57,<0.05,0.44,0.0042,0.00099,0.103,0.005,0.33,0.00027,0.034,0.46,0.4,,
AB05BH0010,14/12/2015 11:44,2015-2017,0.32,8.36,180,12.82,<0.05,0.3,0.0032,0.00228,0.089,0.006,0.26,0.00021,0.021,0.5,0.4,,
AB05BH0010,19/01/2016 10:40,2015-2017,0,8.09,190,12.82,<0.05,0.18,<0.003,0.00312,0.125,0.012,0.31,<0.00008,0.022,0.63,0.6,,
AB05BH0010,17/02/2016 10:50,2015-2017,0.34,8.19,190,12.97,<0.05,0.24,0.0051,0.00173,0.101,0.006,0.35,0.00015,0.021,0.46,0.5,,
AB05BH0010,14/03/2016 10:30,2015-2017,1.67,8.31,180,12.27,<0.05,0.12,<0.003,0.00202,0.119,0.002,0.33,0.00028,0.02,0.65,0.5,,
AB05BH0010,11/04/2016 10:15,2015-2017,5.09,8.26,150,11.67,<0.05,0.11,<0.003,0.00105,0.138,0.007,0.55,0.00023,0.032,0.52,0.7,,
AB05BH0010,16/05/2016 9:45,2015-2017,9.22,8.12,150,10.57,<0.05,0.29,<0.003,0.00298,0.18,0.008,0.5,0.00037,0.089,0.17,1,<0.005,<5
AB05BH0010,13/06/2016 10:25,2015-2017,14.18,8.26,150,9.35,<0.05,0.16,0.0079,0.00488,0.187,0.01,0.5,0.0007,0.193,0.48,1.3,<0.005,<5
AB05BH0010,11/07/2016 10:30,2015-2017,14.49,8.29,130,9.41,<0.05,0.19,0.0046,0.00168,0.139,0.007,0.49,0.0004,0.062,0.33,1.2,<0.005,<5
AB05BH0010,16/08/2016 9:45,2015-2017,15.19,8.93,150,9.15,<0.05,0.18,<0.003,0.0193,0.138,0.024,0.54,0.00056,0.093,0.32,1.1,0.024,<5
AB05BH0010,19/09/2016 10:15,2015-2017,11.75,8.06,160,10,<0.05,0.15,0.0039,0.00172,0.122,0.007,1.47,0.00025,0.064,0.4,1.5,,
AB05BH0010,27/10/2016 8:20,2015-2017,4.43,8.87,160,11.14,<0.05,0.13,<0.003,0.00116,0.12,0.004,0.58,0.00108,0.03,0.7,0.4,,
AB05BH0010,14/11/2016 11:20,2015-2017,4.6,8.43,190,11.89,<0.05,0.14,0.0031,0.0022,0.12,<0.002,0.51,0.00024,0.025,0.48,0.7,,
AB05BH0010,08/12/2016 11:15,2015-2017,0,8.28,180,13.3,<0.05,0.21,<0.003,0.00094,0.074,0.01,1.08,0.00028,0.029,0.53,0.8,,
AB05BH0010,09/01/2017 10:40,2015-2017,0,8.34,180,13.13,<0.05,0.24,<0.003,0.00127,0.094,0.005,0.88,0.00036,0.05,0.54,1,,
AB05BH0010,06/02/2017 12:10,2015-2017,0,8.12,190,13.11,<0.05,0.17,<0.003,0.0015,0.121,0.005,0.47,0,0.023,0.66,1,,
AB05BH0010,07/03/2017 11:00,2015-2017,0.01,8.46,190,14.07,<0.05,0.23,0.0061,0.0011,0.111,0.004,0.35,0.0003,0.049,0.36,0.6,,
AB05BH0010,03/04/2017 10:45,2015-2017,2.65,8.54,160,12.72,<0.05,0.16,0.0081,0.00213,0.128,0.006,0.4,0.00037,0.058,0.5,0.8,,
AB05BH0010,15/05/2017 10:45,2015-2017,9.97,8.36,170,10.48,<0.015,0.23,0.0042,0.00191,0.218,0.014,0.47,0.00082,0.111,0.59,1,<0.005,<0.005
AB05BH0010,12/06/2017 10:10,2015-2017,9.51,8.17,130,10.46,0.067,0.23,0.029,0.0061,0.68,0.03,1.45,0.00221,0.863,0.4,5,<0.005,<0.005
AB05BH0010,17/07/2017 9:10,2015-2017,15.78,8.23,130,8.86,<0.015,0.15,0.0044,0.0031,0.16,<0.01,0.37,0.0007,0.057,0.5,<0.2,<0.005,<0.005
AB05BH0010,21/08/2017 9:00,2015-2017,14.29,8.29,140,9.42,<0.015,0.13,<0.003,0.0014,0.19,<0.01,0.46,0.0009,0.006,0.4,0.4,<0.005,<0.005
AB05BH0010,18/09/2017 9:00,2015-2017,11.4,8.23,140,9.67,<0.015,0.16,<0.003,0.001,0.15,<0.01,0.5,0.00028,0.018,0.4,1,,
AB05BH0010,10/10/2017 9:00,2015-2017,6.67,8.15,170,10.81,<0.015,0.15,<0.003,0.0011,0.15,0.01,0.2,0.00043,0.018,0.4,0.5,,
AB05BH0010,21/11/2017 9:45,2015-2017,1.11,7.98,160,12.4,<0.015,0.19,0.0031,0.0012,0.12,<0.01,0.26,0.00033,0.01,0.5,0.4,,
AB05BH0010,12/12/2017 9:45,2015-2017,1.77,8.23,180,12.37,0.021,0.22,0.0031,0.0004,0.13,<0.01,0.3,0.00035,0.022,0.6,0.6,,
AB05BJ0450,19/01/2015 10:30,2015-2017,0.98,8.19,240,12.57,<0.05,0.71,<0.003,0.00093,0.203,0.006,0.6,0.00034,0.061,0.63,0.9,,
AB05BJ0450,09/02/2015 9:10,2015-2017,0.03,7.96,240,12.35,<0.05,0.43,0.003,0.00216,0.259,0.007,0.78,0.00037,0.07,0.82,1.1,,
AB05BJ0450,09/03/2015 8:35,2015-2017,3.097,8.26,230,11.26,<0.05,0.41,0.007,0.00233,0.203,0.004,0.84,0.00058,0.103,0.8,1.4,,